STARLINK-3107, 49171

Orbit data source: Space-Track

STARLINK-3107, 49171 is a payload satellite owned by SpaceX/Seattle (US) in LEO that was launched on Tue, 14 Sep 2021 UTC via an FALCON 9 launch vehicle from the Air Force Western Test Range (AFWTR). Payload-class satellites include a variety of spacecraft equipped with specific instruments for various scientific and technological missions. These include communications satellites like Starlink; space stations such as the ISS; scientific satellites like the Hubble; Earth observation satellites from companies like Planet Labs, Umbra, and HawkEye 360; GPS; miniature CubeSats for education and research; and military/defense satellites.

Loading next visibility...
Identifier
49171, 2021-082AT
Orbit
LEO
Country
Flag of USUS
Related business
Manufacturer
SpaceX/Seattle
Mission
Partially operational Commercial Communications
Bus & Motor
STARLINK, Unknown motor
Mass
297 kg wet, ~275 kg dry
Launch date (UTC)
2021-09-14 (5 years ago)
Launch vehicle
FALCON 9
Launch site
Air Force Western Test Range (AFWTR)
Object type
Payload
Rocket body
Debris
Shape & HBR
Box + 1 Pan, 10.1 m
Radar Cross Section
13.562 m², Large (>1 m²)

Expand to show TLE details & history
Last TLE update: 3 days ago

TLE from 3 days ago
0 STARLINK-3107
1 49171U 21082AT  26171.01375204  .00016272  00000-0  88069-3 0  9996
2 49171  69.9938  24.0460 0002955 165.7143 194.4109 15.14702179262771
Epoch: 2026-06-20T00:19Z
TLE epoch observation values (Epoch: 2026-06-20T00:19:48.176Z)
Latitude
0.00003°
Longitude
110.86081°
Altitude
526.299 km
Speed
7.599 km/s
True Right ascension
01h 36m 11s
True Declination
0° 00' 00"
Sunlit
Object was in daylight at epoch
Visualization orbit readout
Latitude
Unknown
Longitude
Unknown
Altitude
Unknown
Speed
Unknown
Apparent Right ascension
Unknown
Apparent Declination
Unknown
Sunlit
N/A
Visualization observer readout
Local Sidereal Time
00:51:08
Azimuth
Unknown
Elevation
Unknown
Doppler factor
Unknown
Orbital elements
Apogee altitude
521.855 km
Perigee altitude
517.778 km
Semi-major axis
6,897.954 km
Eccentricity
0.0003
Inclination
69.9938°
RAAN
24.046°
Arg. of periapsis
165.7143°
True anomaly
194.40248°
Mean anomaly
194.4109°
Eccentric anomaly
194.40669°
Mean motion
3.78846 °/min
Orbital period
95.03 mins
BSTAR
0.00088069
Loading maneuver chart data...
Computing Atmospheric mass density...

Documentation

Showing up to 5 results
|